Plymouth, MA

2:52 PM EDT on July 20, 2017 (GMT -0400)
Plymouth Municipal

Weather History for KPYM - March, 2013

Change the Weather History Date:

Sunday, March 31, 2013

  Actual Average Record
Temperature  
Mean Temperature 42 °F -  
Max Temperature 59 °F 50 °F 84 °F (1977)
Min Temperature 27 °F 32 °F 16 °F (1969)
Degree Days  
Heating Degree Days 23    
Moisture  
Dew Point 28 °F    
Average Humidity 59    
Maximum Humidity 88    
Minimum Humidity 26    
Precipitation  
Precipitation 0.05 in - - ()
Sea Level Pressure  
Sea Level Pressure 30.04 in    
Wind  
Wind Speed 4 mph (South)    
Max Wind Speed 18 mph    
Max Gust Speed 31 mph    
Visibility 10 miles    
Events Rain    
Averages and records for this station are not official NWS values.
T = Trace of Precipitation, MM = Missing Value Source: NWS Daily Summary

Daily Weather History Graph

Daily Weather History Graph

Search for Another Location

Airport or City:

Trip Planner

Search our weather history database for the weather conditions in past years. The results will help you decide how hot, cold, wet, or windy it might be!

Date:

Astronomy

Mar. 31, 2013 Rise Set
Actual Time 6:27 AM EDT 7:07 PM EDT
Civil Twilight 5:58 AM EDT 7:35 PM EDT
Nautical Twilight 5:25 AM EDT 8:09 PM EDT
Astronomical Twilight 4:51 AM EDT 8:43 PM EDT
Moon No Moon Rise 9:07 AM EDT (3/31)
Length of Visible Light 13h 36m
Length of Day
12h 40m
Waning Gibbous, 78% of the Moon is Illuminated
Mar 31
Waning Gibbous
Apr 3
Last Quarter
Apr 10
New
Apr 18
First Quarter
Apr 25
Full

Hourly Weather History & Observations

Time (EDT) Temp. Windchill Dew Point Humidity Pressure Visibility Wind Dir Wind Speed Gust Speed Precip Events Conditions
12:52 AM 30.0 °F - 26.1 °F 85% 30.12 in 10.0 mi Calm Calm - N/A   Clear
1:52 AM 28.9 °F - 25.0 °F 85% 30.12 in 10.0 mi Calm Calm - N/A   Clear
2:52 AM 28.0 °F - 25.0 °F 88% 30.11 in 10.0 mi Calm Calm - N/A   Clear
3:52 AM 28.0 °F - 24.1 °F 85% 30.11 in 10.0 mi Calm Calm - N/A   Clear
4:52 AM 28.0 °F - 24.1 °F 85% 30.11 in 10.0 mi Calm Calm - N/A   Clear
5:52 AM 27.0 °F - 21.9 °F 81% 30.12 in 10.0 mi Calm Calm - N/A   Clear
6:52 AM 27.0 °F - 23.0 °F 85% 30.13 in 10.0 mi Calm Calm - N/A   Clear
7:52 AM 33.1 °F - 28.0 °F 82% 30.13 in 10.0 mi Calm Calm - N/A   Clear
8:52 AM 43.0 °F - 28.9 °F 58% 30.12 in 10.0 mi Calm Calm - N/A   Clear
9:52 AM 51.1 °F - 27.0 °F 39% 30.12 in 10.0 mi SW 6.9 mph - N/A   Clear
10:52 AM 55.0 °F - 21.0 °F 27% 30.11 in 10.0 mi SSW 9.2 mph - N/A   Clear
11:52 AM 57.0 °F - 24.1 °F 28% 30.10 in 10.0 mi SSW 11.5 mph 18.4 mph N/A   Clear
12:52 PM 57.0 °F - 25.0 °F 29% 30.08 in 10.0 mi South 10.4 mph 17.3 mph N/A   Clear
1:52 PM 57.9 °F - 27.0 °F 31% 30.05 in 10.0 mi South 13.8 mph 27.6 mph N/A   Clear
2:52 PM 57.0 °F - 21.9 °F 26% 30.04 in 10.0 mi SW 18.4 mph 31.1 mph N/A   Clear
3:52 PM 55.0 °F - 24.1 °F 30% 30.02 in 10.0 mi SSW 11.5 mph 23.0 mph N/A   Clear
4:52 PM 53.1 °F - 30.0 °F 41% 30.01 in 10.0 mi SSW 11.5 mph 25.3 mph N/A   Clear
5:52 PM 51.1 °F - 33.1 °F 50% 30.00 in 10.0 mi SSW 11.5 mph - N/A   Partly Cloudy
6:52 PM 48.9 °F - 34.0 °F 56% 29.99 in 10.0 mi South 6.9 mph - N/A   Overcast
7:52 PM 48.9 °F - 34.0 °F 56% 29.97 in 10.0 mi South 8.1 mph - N/A   Overcast
8:52 PM 48.0 °F - 32.0 °F 54% 29.93 in 10.0 mi SE 6.9 mph - N/A   Overcast
9:52 PM 48.9 °F - 32.0 °F 52% 29.89 in 10.0 mi SSE 10.4 mph 19.6 mph N/A   Overcast
10:52 PM 46.0 °F 40.2 °F 39.0 °F 76% 29.83 in 8.0 mi SE 12.7 mph 19.6 mph 0.01 in Rain Light Rain
11:52 PM 46.0 °F 41.4 °F 41.0 °F 83% 29.77 in 6.0 mi SE 9.2 mph - 0.04 in Rain Light Rain